sat.trackr.live / text

‹ back to catalog

STARLINK-3286

NORAD 50171 · 2021-125R

PAYLOAD ACTIVE UNKNOWN

§ Identity

Operator
Country
US
Launch date
2021-12-18
Launch site
AFWTR
Launch vehicle
Mass (kg)
RCS (m²)

Purposes: comms

External: N2YO · Heavens-Above · Gunter

§ Orbital elements

Epoch: 2026-09-20T01:00:48.285792Z

Period
94.01 min
Inclination
53.1609°
Eccentricity
0.0001228
Mean motion
15.31703743 rev/d
Perigee alt
469.9 km
Apogee alt
471.6 km
Semi-major
6,848.9 km
B*
1.4426e-5
RAAN
81.0116°
Arg perigee
81.3620°
Mean anomaly
278.7520°
Rev number
26,615

§ Raw data

STARLINK-32861 50171U 21125R   26263.04222553  .00000083  00000+0  14426-4 0  99982 50171  53.1609  81.0116 0001228  81.3620 278.7520 15.31703743266155

JSON: /api/v1/satellites/50171 · /tle

For live sub-satellite position, see the globe view (requires WebGL).

§ Visibility from observer

Set your observer location to see the next 7 days of passes ≥ 10°. The values pass through the URL so the page stays shareable.

No JS? Fill the form by hand. The geolocation button needs JavaScript.